When you browse on this site, cookies collect data to enhance your experience and personalize the content and advertising you see.
Visit our Privacy Policy to learn more. By continuing to use the site, you agree to this use of cookies and data.
  • In Österreich
  • Länderverzeichnis
  • Für 7 Tage
  • Wassertemperatur
  • Satellitenkarten
  • Wetterkarte
  • News
  • Widgets
  • user-avatar
    Anmelden

    Stündliche Wetter Kaputy

    Heute, 21 März, Donnerstag

    Zeit Temperatur Niederschläge Wind Luftdruck Luftfeuchtigkeit
    00:00 +5°C° 0 mm 4 m/S 765 mmHg 57%
    01:00 +5°C° 0 mm 5 m/S 765 mmHg 58%
    02:00 +5°C° 0 mm 5 m/S 764 mmHg 61%
    03:00 +5°C° 0 mm 5 m/S 764 mmHg 64%
    04:00 +5°C° 0 mm 4 m/S 764 mmHg 67%
    05:00 +5°C° 0 mm 4 m/S 764 mmHg 71%
    06:00 +5°C° 0 mm 4 m/S 764 mmHg 74%
    07:00 +5°C° 0 mm 4 m/S 765 mmHg 78%
    08:00 +6°C° 0 mm 4 m/S 765 mmHg 77%
    09:00 +7°C° 0 mm 4 m/S 765 mmHg 77%
    10:00 +8°C° 0 mm 4 m/S 765 mmHg 76%
    11:00 +8°C° 0 mm 4 m/S 765 mmHg 74%
    12:00 +8°C° 0 mm 4 m/S 765 mmHg 71%
    13:00 +9°C° 0 mm 5 m/S 765 mmHg 68%
    14:00 +9°C° 0 mm 5 m/S 764 mmHg 67%
    15:00 +10°C° 0 mm 5 m/S 764 mmHg 66%
    16:00 +10°C° 0 mm 5 m/S 764 mmHg 66%
    17:00 +9°C° 0 mm 5 m/S 764 mmHg 70%
    18:00 +10°C° 0 mm 4 m/S 764 mmHg 74%
    19:00 +8°C° 0 mm 4 m/S 764 mmHg 78%
    20:00 +8°C° 0 mm 4 m/S 764 mmHg 80%
    21:00 +8°C° 0 mm 4 m/S 764 mmHg 82%
    22:00 +8°C° 0 mm 4 m/S 764 mmHg 84%
    23:00 +8°C° 0 mm 4 m/S 764 mmHg 85%

    Morgen, 22 März, Freitag

    Zeit Temperatur Niederschläge Wind Luftdruck Luftfeuchtigkeit
    00:00 +8°C° 0 mm 4 m/S 764 mmHg 86%
    01:00 +8°C° 0 mm 4 m/S 764 mmHg 87%
    02:00 +8°C° 0 mm 4 m/S 764 mmHg 88%
    03:00 +8°C° 0 mm 4 m/S 763 mmHg 89%
    04:00 +8°C° 0 mm 4 m/S 763 mmHg 90%
    05:00 +8°C° 0 mm 4 m/S 764 mmHg 91%
    06:00 +8°C° 0 mm 4 m/S 764 mmHg 91%
    07:00 +8°C° 0 mm 4 m/S 764 mmHg 91%
    08:00 +10°C° 0 mm 4 m/S 764 mmHg 87%
    09:00 +10°C° 0 mm 3 m/S 764 mmHg 83%
    10:00 +11°C° 0 mm 3 m/S 764 mmHg 78%
    11:00 +11°C° 0 mm 3 m/S 765 mmHg 77%
    12:00 +12°C° 0 mm 2 m/S 765 mmHg 76%
    13:00 +12°C° 0 mm 2 m/S 765 mmHg 74%
    14:00 +13°C° 0 mm 2 m/S 764 mmHg 70%
    15:00 +14°C° 0 mm 2 m/S 764 mmHg 66%
    16:00 +14°C° 0 mm 2 m/S 764 mmHg 62%
    17:00 +13°C° 0 mm 1 m/S 764 mmHg 66%
    18:00 +12°C° 0 mm 1 m/S 764 mmHg 71%
    19:00 +10°C° 0 mm 0 m/S 764 mmHg 76%
    20:00 +9°C° 0 mm 0 m/S 764 mmHg 78%
    21:00 +10°C° 0 mm 1 m/S 764 mmHg 80%
    22:00 +9°C° 0 mm 1 m/S 764 mmHg 83%
    23:00 +9°C° 0 mm 1 m/S 764 mmHg 84%

    übermorgen, 23 März, Samstag

    Zeit Temperatur Niederschläge Wind Luftdruck Luftfeuchtigkeit
    00:00 +8°C° 0 mm 1 m/S 764 mmHg 86%
    01:00 +8°C° 0 mm 1 m/S 763 mmHg 87%
    02:00 +8°C° 0 mm 1 m/S 763 mmHg 88%
    03:00 +8°C° 0 mm 1 m/S 763 mmHg 89%
    04:00 +7°C° 0 mm 1 m/S 762 mmHg 90%
    05:00 +8°C° 0 mm 1 m/S 762 mmHg 90%
    06:00 +8°C° 0 mm 1 m/S 762 mmHg 90%
    07:00 +7°C° 0 mm 2 m/S 762 mmHg 89%
    08:00 +9°C° 0 mm 2 m/S 762 mmHg 83%
    09:00 +12°C° 0 mm 2 m/S 761 mmHg 76%
    10:00 +14°C° 0 mm 2 m/S 761 mmHg 69%
    11:00 +15°C° 0 mm 2 m/S 761 mmHg 65%
    12:00 +16°C° 0 mm 2 m/S 760 mmHg 60%
    13:00 +17°C° 0 mm 3 m/S 760 mmHg 55%
    14:00 +17°C° 0 mm 3 m/S 759 mmHg 55%
    15:00 +18°C° 0 mm 3 m/S 759 mmHg 55%
    16:00 +18°C° 0 mm 3 m/S 759 mmHg 54%
    17:00 +17°C° 0 mm 2 m/S 759 mmHg 60%
    18:00 +15°C° 0 mm 2 m/S 759 mmHg 65%
    19:00 +14°C° 0 mm 2 m/S 759 mmHg 71%
    20:00 +13°C° 0 mm 2 m/S 759 mmHg 74%
    21:00 +12°C° 0 mm 3 m/S 759 mmHg 78%
    22:00 +11°C° 0 mm 3 m/S 759 mmHg 82%
    23:00 +10°C° 0 mm 3 m/S 760 mmHg 82%

    24 März, Sonntag

    Zeit Temperatur Niederschläge Wind Luftdruck Luftfeuchtigkeit
    00:00 +8°C° 0 mm 4 m/S 760 mmHg 82%
    01:00 +8°C° 0 mm 4 m/S 760 mmHg 82%
    02:00 +8°C° 0 mm 3 m/S 760 mmHg 78%
    03:00 +7°C° 0 mm 3 m/S 760 mmHg 75%
    04:00 +5°C° 0 mm 3 m/S 760 mmHg 72%
    05:00 +5°C° 0 mm 3 m/S 761 mmHg 71%
    06:00 +5°C° 0 mm 3 m/S 761 mmHg 69%
    07:00 +4°C° 0 mm 3 m/S 761 mmHg 68%
    08:00 +7°C° 0 mm 2 m/S 761 mmHg 64%
    09:00 +8°C° 0 mm 2 m/S 761 mmHg 60%
    10:00 +9°C° 0 mm 2 m/S 762 mmHg 56%
    11:00 +10°C° 0 mm 2 m/S 761 mmHg 50%
    12:00 +12°C° 0 mm 1 m/S 761 mmHg 44%
    13:00 +13°C° 0 mm 1 m/S 760 mmHg 39%
    14:00 +13°C° 0 mm 1 m/S 760 mmHg 37%
    15:00 +13°C° 0 mm 1 m/S 759 mmHg 36%
    16:00 +13°C° 0 mm 1 m/S 759 mmHg 35%
    17:00 +12°C° 0 mm 1 m/S 759 mmHg 39%
    18:00 +11°C° 0 mm 1 m/S 759 mmHg 43%
    19:00 +9°C° 0 mm 1 m/S 758 mmHg 46%
    20:00 +9°C° 0 mm 1 m/S 758 mmHg 48%
    21:00 +9°C° 0 mm 1 m/S 758 mmHg 50%
    22:00 +8°C° 0 mm 1 m/S 757 mmHg 52%
    23:00 +8°C° 0 mm 1 m/S 757 mmHg 54%

    25 März, Montag

    Zeit Temperatur Niederschläge Wind Luftdruck Luftfeuchtigkeit
    00:00 +8°C° 0 mm 1 m/S 756 mmHg 55%
    01:00 +8°C° 0 mm 1 m/S 756 mmHg 56%
    02:00 +8°C° 0 mm 1 m/S 755 mmHg 59%
    03:00 +7°C° 0 mm 1 m/S 755 mmHg 61%
    04:00 +6°C° 0 mm 0 m/S 754 mmHg 63%
    05:00 +7°C° 0 mm 1 m/S 754 mmHg 63%
    06:00 +6°C° 0 mm 2 m/S 754 mmHg 63%
    07:00 +6°C° 0 mm 2 m/S 754 mmHg 63%
    08:00 +7°C° 0 mm 3 m/S 753 mmHg 56%
    09:00 +7°C° 0 mm 4 m/S 753 mmHg 49%
    10:00 +10°C° 0 mm 4 m/S 753 mmHg 42%
    11:00 +9°C° 0 mm 5 m/S 752 mmHg 41%
    12:00 +9°C° 0 mm 6 m/S 752 mmHg 40%
    13:00 +10°C° 0 mm 6 m/S 751 mmHg 40%
    14:00 +9°C° 0 mm 6 m/S 751 mmHg 41%
    15:00 +9°C° 0 mm 6 m/S 750 mmHg 43%
    16:00 +9°C° 0 mm 7 m/S 750 mmHg 44%
    17:00 +8°C° 0.2 mm 7 m/S 750 mmHg 51%
    18:00 +6°C° 0.2 mm 7 m/S 749 mmHg 57%
    19:00 +5°C° 0.2 mm 7 m/S 749 mmHg 64%
    20:00 +4°C° 0.2 mm 6 m/S 749 mmHg 64%
    21:00 +4°C° 0.2 mm 6 m/S 749 mmHg 63%
    22:00 +3°C° 0.2 mm 6 m/S 749 mmHg 63%
    23:00 +2°C° 0 mm 6 m/S 749 mmHg 65%

    26 März, Dienstag

    Zeit Temperatur Niederschläge Wind Luftdruck Luftfeuchtigkeit
    00:00 +2°C° 0 mm 6 m/S 748 mmHg 67%
    01:00 +1°C° 0 mm 6 m/S 748 mmHg 69%
    02:00 0°C° 0 mm 7 m/S 747 mmHg 70%
    03:00 0°C° 0 mm 8 m/S 747 mmHg 70%
    04:00 0°C° 0 mm 9 m/S 746 mmHg 71%
    05:00 0°C° 0 mm 8 m/S 746 mmHg 71%
    06:00 0°C° 0 mm 8 m/S 746 mmHg 71%
    07:00 0°C° 0 mm 8 m/S 746 mmHg 71%
    08:00 +1°C° 0.3 mm 8 m/S 746 mmHg 68%
    09:00 +1°C° 0.3 mm 8 m/S 747 mmHg 65%
    10:00 +2°C° 0.3 mm 8 m/S 747 mmHg 63%
    11:00 +2°C° 0.5 mm 8 m/S 748 mmHg 61%
    12:00 +2°C° 0.5 mm 8 m/S 748 mmHg 60%
    13:00 +2°C° 0.5 mm 9 m/S 749 mmHg 59%
    14:00 +2°C° 0.1 mm 9 m/S 749 mmHg 62%
    15:00 +1°C° 0.1 mm 9 m/S 750 mmHg 65%
    16:00 +1°C° 0.1 mm 9 m/S 751 mmHg 67%
    17:00 0°C° 0.2 mm 9 m/S 751 mmHg 70%
    18:00 -1°C° 0.2 mm 9 m/S 752 mmHg 73%
    19:00 -2°C° 0.2 mm 10 m/S 752 mmHg 75%
    20:00 -1°C° 0.3 mm 9 m/S 752 mmHg 76%
    21:00 -3°C° 0.3 mm 9 m/S 753 mmHg 77%
    22:00 -3°C° 0.3 mm 9 m/S 753 mmHg 78%
    23:00 -1°C° 0.4 mm 9 m/S 753 mmHg 79%
    Mehr zeigen